Time,TemperatureF,DewpointF,PressureIn,WindDirection,WindDirectionDegrees,WindSpeedMPH,WindSpeedGustMPH,Humidity,HourlyPrecipIn,Conditions,Clouds,dailyrainin,SolarRadiationWatts/m^2,SoftwareType,DateUTC
2013-02-02 00:05:00,44.1,39.6,30.23,NW,326,0.0,0.0,84,0.00,,,0.00,0,WeatherTracker,2013-02-02 08:05:00,
2013-02-02 00:10:00,44.1,39.6,30.23,NW,326,0.0,0.0,84,0.00,,,0.00,0,WeatherTracker,2013-02-02 08:10:00,
2013-02-02 00:15:00,43.9,39.4,30.23,NW,326,0.0,0.0,84,0.00,,,0.00,0,WeatherTracker,2013-02-02 08:15:00,
2013-02-02 00:20:00,43.8,39.6,30.23,NW,326,0.0,0.0,85,0.00,,,0.00,0,WeatherTracker,2013-02-02 08:20:00,
2013-02-02 00:26:00,43.7,39.5,30.23,NW,326,0.0,0.0,85,0.00,,,0.00,0,WeatherTracker,2013-02-02 08:26:00,
2013-02-02 00:31:00,43.7,39.5,30.23,NW,326,0.0,0.0,85,0.00,,,0.00,0,WeatherTracker,2013-02-02 08:31:00,
2013-02-02 00:36:00,43.7,39.5,30.23,NW,326,0.0,0.0,85,0.00,,,0.00,0,WeatherTracker,2013-02-02 08:36:00,
2013-02-02 00:41:00,43.7,39.5,30.23,NW,326,0.0,0.0,85,0.00,,,0.00,0,WeatherTracker,2013-02-02 08:41:00,
2013-02-02 00:46:00,43.7,39.2,30.23,NW,326,0.0,0.0,84,0.00,,,0.00,0,WeatherTracker,2013-02-02 08:46:00,
2013-02-02 00:51:00,43.5,39.0,30.23,NW,326,0.0,0.0,84,0.00,,,0.00,0,WeatherTracker,2013-02-02 08:51:00,
2013-02-02 00:56:00,43.4,38.9,30.23,NW,326,0.0,0.0,84,0.00,,,0.00,0,WeatherTracker,2013-02-02 08:56:00,
2013-02-02 01:01:00,43.4,38.9,30.23,NW,326,0.0,0.0,84,0.00,,,0.00,0,WeatherTracker,2013-02-02 09:01:00,
2013-02-02 01:06:00,43.4,38.9,30.23,NW,326,0.0,0.0,84,0.00,,,0.00,0,WeatherTracker,2013-02-02 09:06:00,
2013-02-02 01:11:00,43.5,39.0,30.23,NW,326,0.0,0.0,84,0.00,,,0.00,0,WeatherTracker,2013-02-02 09:11:00,
2013-02-02 01:16:00,43.6,39.1,30.23,NW,326,0.0,0.0,84,0.00,,,0.00,0,WeatherTracker,2013-02-02 09:16:00,
2013-02-02 01:21:00,43.6,39.1,30.23,NW,326,0.0,0.0,84,0.00,,,0.00,0,WeatherTracker,2013-02-02 09:21:00,
2013-02-02 01:26:00,43.6,39.1,30.23,NW,325,0.0,0.0,84,0.00,,,0.00,0,WeatherTracker,2013-02-02 09:26:00,
2013-02-02 01:31:00,43.7,39.2,30.23,NW,325,0.0,0.0,84,0.00,,,0.00,0,WeatherTracker,2013-02-02 09:31:00,
2013-02-02 01:36:00,43.7,39.2,30.23,NW,325,0.0,0.0,84,0.00,,,0.00,0,WeatherTracker,2013-02-02 09:36:00,
2013-02-02 01:41:00,43.8,39.3,30.23,NW,325,0.0,0.0,84,0.00,,,0.00,0,WeatherTracker,2013-02-02 09:41:00,
2013-02-02 01:46:00,43.7,39.2,30.24,NW,325,0.0,0.0,84,0.00,,,0.00,0,WeatherTracker,2013-02-02 09:46:00,
2013-02-02 01:51:00,43.7,39.2,30.23,NW,325,0.0,0.0,84,0.00,,,0.00,0,WeatherTracker,2013-02-02 09:51:00,
2013-02-02 01:56:00,43.7,39.2,30.24,NW,325,0.0,0.0,84,0.00,,,0.00,0,WeatherTracker,2013-02-02 09:56:00,
2013-02-02 02:02:00,43.7,39.2,30.24,NW,325,0.0,0.0,84,0.00,,,0.00,0,WeatherTracker,2013-02-02 10:02:00,
2013-02-02 02:07:00,43.7,39.2,30.24,NW,325,0.0,0.0,84,0.00,,,0.00,0,WeatherTracker,2013-02-02 10:07:00,
2013-02-02 02:12:00,43.7,39.2,30.24,NW,325,0.0,0.0,84,0.00,,,0.00,0,WeatherTracker,2013-02-02 10:12:00,
2013-02-02 02:17:00,43.7,39.2,30.24,NW,325,0.0,0.0,84,0.00,,,0.00,0,WeatherTracker,2013-02-02 10:17:00,
2013-02-02 02:22:00,43.7,39.2,30.24,NW,325,0.0,0.0,84,0.00,,,0.00,0,WeatherTracker,2013-02-02 10:22:00,
2013-02-02 02:27:00,43.7,39.2,30.24,NW,325,0.0,0.0,84,0.00,,,0.00,0,WeatherTracker,2013-02-02 10:27:00,
2013-02-02 02:32:00,43.8,39.3,30.24,NW,325,0.0,0.0,84,0.00,,,0.00,0,WeatherTracker,2013-02-02 10:32:00,
2013-02-02 02:37:00,43.8,39.3,30.25,NW,325,0.0,0.0,84,0.00,,,0.00,0,WeatherTracker,2013-02-02 10:37:00,
2013-02-02 02:42:00,43.8,39.3,30.25,NW,325,0.0,0.0,84,0.00,,,0.00,0,WeatherTracker,2013-02-02 10:42:00,
2013-02-02 02:47:00,43.7,39.2,30.25,NW,325,0.0,0.0,84,0.00,,,0.00,0,WeatherTracker,2013-02-02 10:47:00,
2013-02-02 02:52:00,43.7,39.2,30.25,NW,325,0.0,0.0,84,0.00,,,0.00,0,WeatherTracker,2013-02-02 10:52:00,
2013-02-02 02:57:00,43.6,39.4,30.25,NW,325,0.0,0.0,85,0.00,,,0.00,0,WeatherTracker,2013-02-02 10:57:00,
2013-02-02 03:02:00,43.6,39.4,30.25,NW,325,0.0,0.0,85,0.00,,,0.00,0,WeatherTracker,2013-02-02 11:02:00,
2013-02-02 03:07:00,43.6,39.4,30.25,NW,325,0.0,0.0,85,0.00,,,0.00,0,WeatherTracker,2013-02-02 11:07:00,
2013-02-02 03:12:00,43.6,39.4,30.25,NW,325,0.0,0.0,85,0.00,,,0.00,0,WeatherTracker,2013-02-02 11:12:00,
2013-02-02 03:17:00,43.7,39.8,30.24,NW,325,0.0,0.0,86,0.00,,,0.00,0,WeatherTracker,2013-02-02 11:17:00,
2013-02-02 03:22:00,43.7,39.8,30.24,NW,325,0.0,0.0,86,0.00,,,0.00,0,WeatherTracker,2013-02-02 11:22:00,
2013-02-02 03:27:00,43.7,39.8,30.24,NW,325,0.0,0.0,86,0.00,,,0.00,0,WeatherTracker,2013-02-02 11:27:00,
2013-02-02 03:32:00,43.6,39.7,30.24,NW,325,0.0,0.0,86,0.00,,,0.00,0,WeatherTracker,2013-02-02 11:32:00,
2013-02-02 03:37:00,43.7,39.8,30.24,NW,325,0.0,0.0,86,0.00,,,0.00,0,WeatherTracker,2013-02-02 11:37:00,
2013-02-02 03:42:00,43.7,39.8,30.24,NW,325,0.0,0.0,86,0.00,,,0.00,0,WeatherTracker,2013-02-02 11:42:00,
2013-02-02 03:47:00,43.7,39.8,30.25,NW,325,0.0,0.0,86,0.00,,,0.00,0,WeatherTracker,2013-02-02 11:47:00,
2013-02-02 03:53:00,43.9,40.0,30.25,NW,325,0.0,0.0,86,0.00,,,0.00,0,WeatherTracker,2013-02-02 11:53:00,
2013-02-02 03:58:00,44.1,40.2,30.25,NW,322,0.0,0.0,86,0.00,,,0.00,0,WeatherTracker,2013-02-02 11:58:00,
2013-02-02 04:03:00,44.2,40.3,30.25,NW,305,0.0,0.0,86,0.00,,,0.00,0,WeatherTracker,2013-02-02 12:03:00,
2013-02-02 04:08:00,44.3,40.4,30.25,NW,305,0.0,0.0,86,0.00,,,0.00,0,WeatherTracker,2013-02-02 12:08:00,
2013-02-02 04:13:00,44.2,40.3,30.25,NW,304,0.0,0.0,86,0.00,,,0.00,0,WeatherTracker,2013-02-02 12:13:00,
2013-02-02 04:18:00,44.2,40.3,30.24,NW,306,0.0,0.0,86,0.00,,,0.00,0,WeatherTracker,2013-02-02 12:18:00,
2013-02-02 04:23:00,44.1,40.2,30.25,NW,306,0.0,0.0,86,0.00,,,0.00,0,WeatherTracker,2013-02-02 12:23:00,
2013-02-02 04:28:00,44.1,40.2,30.25,NW,306,0.0,0.0,86,0.00,,,0.00,0,WeatherTracker,2013-02-02 12:28:00,
2013-02-02 04:33:00,44.0,40.1,30.24,NW,315,0.0,0.0,86,0.00,,,0.00,0,WeatherTracker,2013-02-02 12:33:00,
2013-02-02 04:38:00,43.9,40.0,30.25,NW,317,0.0,0.0,86,0.00,,,0.00,0,WeatherTracker,2013-02-02 12:38:00,
2013-02-02 04:43:00,43.9,40.0,30.24,NW,323,0.0,0.0,86,0.00,,,0.00,0,WeatherTracker,2013-02-02 12:43:00,
2013-02-02 04:48:00,43.9,40.0,30.24,NNW,327,0.0,0.0,86,0.00,,,0.00,0,WeatherTracker,2013-02-02 12:48:00,
2013-02-02 04:53:00,43.9,40.3,30.24,NNW,327,0.0,0.0,87,0.00,,,0.00,0,WeatherTracker,2013-02-02 12:53:00,
2013-02-02 04:58:00,44.0,40.4,30.24,NNW,327,0.0,0.0,87,0.00,,,0.00,0,WeatherTracker,2013-02-02 12:58:00,
2013-02-02 05:04:00,44.1,40.5,30.24,NW,326,0.0,0.0,87,0.00,,,0.00,0,WeatherTracker,2013-02-02 13:04:00,
2013-02-02 05:09:00,44.2,40.6,30.24,NNW,327,0.0,0.0,87,0.00,,,0.00,0,WeatherTracker,2013-02-02 13:09:00,
2013-02-02 05:14:00,44.2,40.6,30.24,NW,325,0.0,0.0,87,0.00,,,0.00,0,WeatherTracker,2013-02-02 13:14:00,
2013-02-02 05:19:00,44.3,40.7,30.24,NW,326,0.0,0.0,87,0.00,,,0.00,0,WeatherTracker,2013-02-02 13:19:00,
2013-02-02 05:24:00,44.2,40.6,30.24,NW,326,0.0,0.0,87,0.00,,,0.00,0,WeatherTracker,2013-02-02 13:24:00,
2013-02-02 05:29:00,44.2,40.3,30.24,NW,324,0.0,0.0,86,0.00,,,0.00,0,WeatherTracker,2013-02-02 13:29:00,
2013-02-02 05:34:00,44.1,40.5,30.24,NW,323,0.0,0.0,87,0.00,,,0.00,0,WeatherTracker,2013-02-02 13:34:00,
2013-02-02 05:39:00,44.1,40.5,30.24,NW,311,0.0,0.0,87,0.00,,,0.00,0,WeatherTracker,2013-02-02 13:39:00,
2013-02-02 05:44:00,44.2,40.6,30.24,NW,316,0.0,0.0,87,0.00,,,0.00,0,WeatherTracker,2013-02-02 13:44:00,
2013-02-02 05:49:00,44.2,40.6,30.24,NW,321,0.0,0.0,87,0.00,,,0.00,0,WeatherTracker,2013-02-02 13:49:00,
2013-02-02 05:54:00,44.3,40.7,30.24,WNW,300,0.0,0.0,87,0.00,,,0.00,0,WeatherTracker,2013-02-02 13:54:00,
2013-02-02 05:59:00,44.3,40.7,30.24,WNW,300,0.0,0.0,87,0.00,,,0.00,0,WeatherTracker,2013-02-02 13:59:00,
2013-02-02 06:04:00,44.3,40.7,30.24,WNW,300,0.0,0.0,87,0.00,,,0.00,0,WeatherTracker,2013-02-02 14:04:00,
2013-02-02 06:09:00,44.1,40.2,30.24,WNW,300,0.0,0.0,86,0.00,,,0.00,0,WeatherTracker,2013-02-02 14:09:00,
2013-02-02 06:14:00,44.1,40.2,30.25,WNW,300,0.0,0.0,86,0.00,,,0.00,0,WeatherTracker,2013-02-02 14:14:00,
2013-02-02 06:19:00,43.9,40.0,30.25,WNW,302,0.0,0.0,86,0.00,,,0.00,0,WeatherTracker,2013-02-02 14:19:00,
2013-02-02 06:24:00,43.9,40.0,30.24,NW,309,1.0,0.0,86,0.00,,,0.00,0,WeatherTracker,2013-02-02 14:24:00,
2013-02-02 06:30:00,43.9,40.0,30.25,NW,321,0.0,7.0,86,0.00,,,0.00,0,WeatherTracker,2013-02-02 14:30:00,
2013-02-02 06:35:00,43.9,40.0,30.24,NW,323,1.0,7.0,86,0.00,,,0.00,0,WeatherTracker,2013-02-02 14:35:00,
2013-02-02 06:40:00,44.1,40.2,30.25,NW,325,0.0,2.0,86,0.00,,,0.00,0,WeatherTracker,2013-02-02 14:40:00,
2013-02-02 06:45:00,44.2,40.0,30.25,NW,322,0.0,1.0,85,0.00,,,0.00,0,WeatherTracker,2013-02-02 14:45:00,
2013-02-02 06:50:00,44.3,40.1,30.25,NW,319,0.0,1.0,85,0.00,,,0.00,0,WeatherTracker,2013-02-02 14:50:00,
2013-02-02 06:55:00,44.4,39.9,30.25,NNW,329,0.0,1.0,84,0.00,,,0.00,0,WeatherTracker,2013-02-02 14:55:00,
2013-02-02 07:00:00,44.5,40.0,30.25,NNW,329,1.0,1.0,84,0.00,,,0.00,0,WeatherTracker,2013-02-02 15:00:00,
2013-02-02 07:05:00,44.6,40.1,30.25,NW,321,0.0,2.0,84,0.00,,,0.00,0,WeatherTracker,2013-02-02 15:05:00,
2013-02-02 07:10:00,44.7,39.9,30.26,NW,321,0.0,2.0,83,0.00,,,0.00,0,WeatherTracker,2013-02-02 15:10:00,
2013-02-02 07:15:00,44.9,40.1,30.26,NW,315,1.0,1.0,83,0.00,,,0.00,0,WeatherTracker,2013-02-02 15:15:00,
2013-02-02 07:21:00,45.0,40.2,30.26,NW,321,0.0,1.0,83,0.00,,,0.00,5,WeatherTracker,2013-02-02 15:21:00,
2013-02-02 07:26:00,45.1,40.3,30.26,WNW,300,0.0,1.0,83,0.00,,,0.00,9,WeatherTracker,2013-02-02 15:26:00,
2013-02-02 07:31:00,45.2,40.0,30.27,WNW,295,0.0,3.0,82,0.00,,,0.00,12,WeatherTracker,2013-02-02 15:31:00,
2013-02-02 07:36:00,45.3,40.1,30.27,NW,306,0.0,3.0,82,0.00,,,0.00,18,WeatherTracker,2013-02-02 15:36:00,
2013-02-02 07:41:00,45.3,40.1,30.27,NW,312,0.0,2.0,82,0.00,,,0.00,23,WeatherTracker,2013-02-02 15:41:00,
2013-02-02 07:46:00,45.3,40.1,30.27,NW,326,0.0,2.0,82,0.00,,,0.00,26,WeatherTracker,2013-02-02 15:46:00,
2013-02-02 07:51:00,45.5,40.3,30.27,WNW,300,0.0,2.0,82,0.00,,,0.00,32,WeatherTracker,2013-02-02 15:51:00,
2013-02-02 07:56:00,45.6,40.4,30.27,NNW,342,1.0,2.0,82,0.00,,,0.00,37,WeatherTracker,2013-02-02 15:56:00,
2013-02-02 08:01:00,45.7,40.2,30.27,NW,319,0.0,8.0,81,0.00,,,0.00,42,WeatherTracker,2013-02-02 16:01:00,
2013-02-02 08:06:00,46.0,40.5,30.27,NW,304,0.0,8.0,81,0.00,,,0.00,47,WeatherTracker,2013-02-02 16:06:00,
2013-02-02 08:11:00,46.2,40.7,30.27,NNW,331,1.0,3.0,81,0.00,,,0.00,53,WeatherTracker,2013-02-02 16:11:00,
2013-02-02 08:16:00,46.5,41.3,30.27,NW,319,0.0,2.0,82,0.00,,,0.00,58,WeatherTracker,2013-02-02 16:16:00,
2013-02-02 08:21:00,46.7,41.5,30.27,NNW,329,1.0,3.0,82,0.00,,,0.00,65,WeatherTracker,2013-02-02 16:21:00,
2013-02-02 08:26:00,46.9,41.7,30.27,NW,313,0.0,3.0,82,0.00,,,0.00,70,WeatherTracker,2013-02-02 16:26:00,
2013-02-02 08:31:00,47.0,41.8,30.28,NW,306,1.0,2.0,82,0.00,,,0.00,74,WeatherTracker,2013-02-02 16:31:00,
2013-02-02 08:36:00,47.1,41.9,30.28,NNW,328,1.0,2.0,82,0.00,,,0.00,77,WeatherTracker,2013-02-02 16:36:00,
2013-02-02 08:41:00,47.3,41.8,30.28,NW,321,1.0,2.0,81,0.00,,,0.00,83,WeatherTracker,2013-02-02 16:41:00,
2013-02-02 08:46:00,47.4,41.9,30.28,NW,315,1.0,2.0,81,0.00,,,0.00,86,WeatherTracker,2013-02-02 16:46:00,
2013-02-02 08:51:00,47.6,42.1,30.28,NNW,334,0.0,3.0,81,0.00,,,0.00,93,WeatherTracker,2013-02-02 16:51:00,
2013-02-02 08:56:00,47.8,41.9,30.28,NW,324,1.0,3.0,80,0.00,,,0.00,109,WeatherTracker,2013-02-02 16:56:00,
2013-02-02 09:01:00,48.1,41.9,30.29,NNW,327,3.0,3.0,79,0.00,,,0.00,134,WeatherTracker,2013-02-02 17:01:00,
2013-02-02 09:06:00,48.4,41.9,30.29,NNW,330,0.0,3.0,78,0.00,,,0.00,171,WeatherTracker,2013-02-02 17:06:00,
2013-02-02 09:11:00,48.8,41.9,30.29,NNW,333,2.0,4.0,77,0.00,,,0.00,211,WeatherTracker,2013-02-02 17:11:00,
2013-02-02 09:16:00,49.3,42.1,30.29,NNW,330,0.0,8.0,76,0.00,,,0.00,237,WeatherTracker,2013-02-02 17:16:00,
2013-02-02 09:21:00,49.9,42.3,30.29,NW,307,0.0,8.0,75,0.00,,,0.00,262,WeatherTracker,2013-02-02 17:21:00,
2013-02-02 09:26:00,50.5,42.2,30.29,WNW,295,1.0,3.0,73,0.00,,,0.00,269,WeatherTracker,2013-02-02 17:26:00,
2013-02-02 09:32:00,51.1,42.8,30.29,NW,325,1.0,3.0,73,0.00,,,0.00,278,WeatherTracker,2013-02-02 17:32:00,
2013-02-02 09:37:00,51.7,42.6,30.30,NW,321,0.0,2.0,71,0.00,,,0.00,281,WeatherTracker,2013-02-02 17:37:00,
2013-02-02 09:42:00,52.3,43.2,30.30,NW,304,0.0,2.0,71,0.00,,,0.00,264,WeatherTracker,2013-02-02 17:42:00,
2013-02-02 09:47:00,52.7,42.8,30.30,NW,319,1.0,2.0,69,0.00,,,0.00,253,WeatherTracker,2013-02-02 17:47:00,
2013-02-02 09:52:00,53.0,43.1,30.30,NW,323,2.0,2.0,69,0.00,,,0.00,265,WeatherTracker,2013-02-02 17:52:00,
2013-02-02 09:57:00,53.2,42.9,30.30,NNW,329,2.0,2.0,68,0.00,,,0.00,278,WeatherTracker,2013-02-02 17:57:00,
2013-02-02 10:02:00,53.2,42.9,30.30,NW,309,0.0,2.0,68,0.00,,,0.00,294,WeatherTracker,2013-02-02 18:02:00,
2013-02-02 10:07:00,53.4,43.1,30.30,NNW,328,0.0,2.0,68,0.00,,,0.00,311,WeatherTracker,2013-02-02 18:07:00,
2013-02-02 10:12:00,53.8,43.1,30.30,NNW,331,2.0,3.0,67,0.00,,,0.00,359,WeatherTracker,2013-02-02 18:12:00,
2013-02-02 10:17:00,54.3,43.2,30.30,NW,307,1.0,3.0,66,0.00,,,0.00,355,WeatherTracker,2013-02-02 18:17:00,
2013-02-02 10:22:00,54.7,43.6,30.30,NW,319,1.0,3.0,66,0.00,,,0.00,320,WeatherTracker,2013-02-02 18:22:00,
2013-02-02 10:27:00,54.9,43.0,30.30,NW,314,5.0,5.0,64,0.00,,,0.00,255,WeatherTracker,2013-02-02 18:27:00,
2013-02-02 10:32:00,54.9,43.4,30.30,NNW,343,2.0,5.0,65,0.00,,,0.00,322,WeatherTracker,2013-02-02 18:32:00,
2013-02-02 10:37:00,55.1,43.1,30.30,WNW,291,0.0,5.0,64,0.00,,,0.00,262,WeatherTracker,2013-02-02 18:37:00,
2013-02-02 10:42:00,55.2,43.2,30.30,NW,315,0.0,5.0,64,0.00,,,0.00,269,WeatherTracker,2013-02-02 18:42:00,
2013-02-02 10:47:00,55.4,43.0,30.30,West,281,0.0,4.0,63,0.00,,,0.00,311,WeatherTracker,2013-02-02 18:47:00,
2013-02-02 10:52:00,55.6,42.8,30.30,NNW,329,1.0,3.0,62,0.00,,,0.00,316,WeatherTracker,2013-02-02 18:52:00,
2013-02-02 10:57:00,55.9,43.1,30.30,WNW,301,0.0,3.0,62,0.00,,,0.00,325,WeatherTracker,2013-02-02 18:57:00,
2013-02-02 11:03:00,56.2,42.9,30.30,NW,326,2.0,3.0,61,0.00,,,0.00,332,WeatherTracker,2013-02-02 19:03:00,
2013-02-02 11:08:00,56.5,43.6,30.30,NW,313,3.0,3.0,62,0.00,,,0.00,306,WeatherTracker,2013-02-02 19:08:00,
2013-02-02 11:13:00,56.9,43.6,30.30,NW,304,1.0,4.0,61,0.00,,,0.00,336,WeatherTracker,2013-02-02 19:13:00,
2013-02-02 11:18:00,57.2,43.4,30.30,WNW,286,2.0,4.0,60,0.00,,,0.00,345,WeatherTracker,2013-02-02 19:18:00,
2013-02-02 11:23:00,57.4,43.6,30.30,NW,309,1.0,4.0,60,0.00,,,0.00,306,WeatherTracker,2013-02-02 19:23:00,
2013-02-02 11:28:00,57.5,43.3,30.30,NNW,340,1.0,4.0,59,0.00,,,0.00,297,WeatherTracker,2013-02-02 19:28:00,
2013-02-02 11:33:00,57.6,43.4,30.29,NNW,336,0.0,5.0,59,0.00,,,0.00,264,WeatherTracker,2013-02-02 19:33:00,
2013-02-02 11:38:00,57.7,43.5,30.29,WNW,291,0.0,5.0,59,0.00,,,0.00,257,WeatherTracker,2013-02-02 19:38:00,
2013-02-02 11:43:00,57.7,42.1,30.29,NW,313,1.0,3.0,56,0.00,,,0.00,250,WeatherTracker,2013-02-02 19:43:00,
2013-02-02 11:48:00,57.6,42.5,30.28,NW,323,1.0,10.0,57,0.00,,,0.00,267,WeatherTracker,2013-02-02 19:48:00,
2013-02-02 11:53:00,57.6,42.9,30.28,NW,325,2.0,10.0,58,0.00,,,0.00,294,WeatherTracker,2013-02-02 19:53:00,
2013-02-02 11:58:00,57.9,43.7,30.28,NW,311,0.0,3.0,59,0.00,,,0.00,432,WeatherTracker,2013-02-02 19:58:00,
2013-02-02 12:03:00,58.5,43.3,30.27,NW,315,0.0,2.0,57,0.00,,,0.00,432,WeatherTracker,2013-02-02 20:03:00,
2013-02-02 12:08:00,59.1,42.9,30.27,NW,321,3.0,3.0,55,0.00,,,0.00,432,WeatherTracker,2013-02-02 20:08:00,
2013-02-02 12:13:00,59.6,43.4,30.27,NNW,329,0.0,3.0,55,0.00,,,0.00,598,WeatherTracker,2013-02-02 20:13:00,
2013-02-02 12:18:00,60.5,44.2,30.27,WNW,285,0.0,3.0,55,0.00,,,0.00,589,WeatherTracker,2013-02-02 20:18:00,
2013-02-02 12:23:00,60.9,43.7,30.27,NW,312,0.0,2.0,53,0.00,,,0.00,587,WeatherTracker,2013-02-02 20:23:00,
2013-02-02 12:29:00,61.6,43.8,30.27,NNW,346,3.0,3.0,52,0.00,,,0.00,640,WeatherTracker,2013-02-02 20:29:00,
2013-02-02 12:34:00,62.3,43.4,30.26,NW,318,1.0,4.0,50,0.00,,,0.00,606,WeatherTracker,2013-02-02 20:34:00,
2013-02-02 12:39:00,62.6,44.2,30.26,WNW,296,0.0,5.0,51,0.00,,,0.00,633,WeatherTracker,2013-02-02 20:39:00,
2013-02-02 12:44:00,62.8,44.4,30.26,NNW,336,0.0,5.0,51,0.00,,,0.00,429,WeatherTracker,2013-02-02 20:44:00,
2013-02-02 12:49:00,63.1,44.7,30.26,NNW,331,0.0,3.0,51,0.00,,,0.00,385,WeatherTracker,2013-02-02 20:49:00,
2013-02-02 12:54:00,63.1,44.7,30.26,NW,320,0.0,2.0,51,0.00,,,0.00,443,WeatherTracker,2013-02-02 20:54:00,
2013-02-02 12:59:00,63.3,44.9,30.25,NNW,345,0.0,3.0,51,0.00,,,0.00,362,WeatherTracker,2013-02-02 20:59:00,
2013-02-02 13:04:00,63.8,45.3,30.25,NW,321,0.0,3.0,51,0.00,,,0.00,482,WeatherTracker,2013-02-02 21:04:00,
2013-02-02 13:09:00,64.2,45.2,30.25,NW,309,0.0,2.0,50,0.00,,,0.00,512,WeatherTracker,2013-02-02 21:09:00,
2013-02-02 13:14:00,64.6,46.1,30.25,NW,309,0.0,1.0,51,0.00,,,0.00,512,WeatherTracker,2013-02-02 21:14:00,
2013-02-02 13:19:00,64.9,45.3,30.25,NNW,344,0.0,1.0,49,0.00,,,0.00,332,WeatherTracker,2013-02-02 21:19:00,
2013-02-02 13:24:00,64.8,45.7,30.25,NNW,340,0.0,1.0,50,0.00,,,0.00,450,WeatherTracker,2013-02-02 21:24:00,
2013-02-02 13:29:00,65.0,45.4,30.24,NNW,342,0.0,1.0,49,0.00,,,0.00,327,WeatherTracker,2013-02-02 21:29:00,
2013-02-02 13:34:00,65.2,45.6,30.24,North,355,0.0,1.0,49,0.00,,,0.00,468,WeatherTracker,2013-02-02 21:34:00,
2013-02-02 13:39:00,65.5,45.8,30.23,NNW,328,1.0,1.0,49,0.00,,,0.00,461,WeatherTracker,2013-02-02 21:39:00,
2013-02-02 13:44:00,66.0,46.3,30.23,NNW,348,0.0,1.0,49,0.00,,,0.00,476,WeatherTracker,2013-02-02 21:44:00,
2013-02-02 13:49:00,66.2,45.9,30.23,NW,307,0.0,2.0,48,0.00,,,0.00,666,WeatherTracker,2013-02-02 21:49:00,
2013-02-02 13:54:00,66.4,45.5,30.23,NNW,330,0.0,2.0,47,0.00,,,0.00,468,WeatherTracker,2013-02-02 21:54:00,
2013-02-02 13:59:00,66.6,46.3,30.23,North,355,0.0,2.0,48,0.00,,,0.00,478,WeatherTracker,2013-02-02 21:59:00,
2013-02-02 14:04:00,67.0,46.1,30.23,North,349,0.0,2.0,47,0.00,,,0.00,413,WeatherTracker,2013-02-02 22:04:00,
2013-02-02 14:10:00,67.1,46.2,30.22,NW,316,0.0,2.0,47,0.00,,,0.00,555,WeatherTracker,2013-02-02 22:10:00,
2013-02-02 14:15:00,67.7,46.7,30.22,NNW,347,1.0,2.0,47,0.00,,,0.00,570,WeatherTracker,2013-02-02 22:15:00,
2013-02-02 14:20:00,68.2,45.4,30.22,NNW,348,1.0,3.0,44,0.00,,,0.00,534,WeatherTracker,2013-02-02 22:20:00,
2013-02-02 14:25:00,68.4,45.6,30.21,NW,325,0.0,3.0,44,0.00,,,0.00,459,WeatherTracker,2013-02-02 22:25:00,
2013-02-02 14:30:00,68.4,45.6,30.22,WNW,300,0.0,3.0,44,0.00,,,0.00,366,WeatherTracker,2013-02-02 22:30:00,
2013-02-02 14:35:00,68.2,45.4,30.21,WNW,302,1.0,3.0,44,0.00,,,0.00,512,WeatherTracker,2013-02-02 22:35:00,
2013-02-02 14:40:00,68.4,45.6,30.22,NNW,338,0.0,3.0,44,0.00,,,0.00,478,WeatherTracker,2013-02-02 22:40:00,
2013-02-02 14:45:00,68.5,45.7,30.22,NNW,331,0.0,3.0,44,0.00,,,0.00,461,WeatherTracker,2013-02-02 22:45:00,
2013-02-02 14:50:00,68.5,45.7,30.22,NW,307,0.0,2.0,44,0.00,,,0.00,199,WeatherTracker,2013-02-02 22:50:00,
2013-02-02 14:55:00,67.9,45.8,30.22,NNW,341,0.0,2.0,45,0.00,,,0.00,225,WeatherTracker,2013-02-02 22:55:00,
2013-02-02 15:00:00,67.4,45.3,30.22,NNW,338,0.0,1.0,45,0.00,,,0.00,253,WeatherTracker,2013-02-02 23:00:00,
2013-02-02 15:05:00,67.2,45.7,30.22,NNW,338,0.0,1.0,46,0.00,,,0.00,462,WeatherTracker,2013-02-02 23:05:00,
2013-02-02 15:10:00,67.5,45.4,30.22,NNW,338,0.0,1.0,45,0.00,,,0.00,329,WeatherTracker,2013-02-02 23:10:00,
2013-02-02 15:15:00,67.4,44.7,30.22,NNW,338,0.0,0.0,44,0.00,,,0.00,207,WeatherTracker,2013-02-02 23:15:00,
2013-02-02 15:20:00,67.1,45.0,30.22,NNW,338,0.0,0.0,45,0.00,,,0.00,200,WeatherTracker,2013-02-02 23:20:00,
2013-02-02 15:25:00,66.7,45.3,30.22,NNW,338,0.0,0.0,46,0.00,,,0.00,207,WeatherTracker,2013-02-02 23:25:00,
2013-02-02 15:30:00,66.4,45.0,30.22,NNW,338,0.0,0.0,46,0.00,,,0.00,190,WeatherTracker,2013-02-02 23:30:00,
2013-02-02 15:35:00,66.3,45.5,30.21,NNW,338,0.0,0.0,47,0.00,,,0.00,200,WeatherTracker,2013-02-02 23:35:00,
2013-02-02 15:40:00,66.3,45.5,30.21,NNW,338,0.0,0.0,47,0.00,,,0.00,190,WeatherTracker,2013-02-02 23:40:00,
2013-02-02 15:46:00,66.3,44.9,30.21,NNW,338,0.0,0.0,46,0.00,,,0.00,163,WeatherTracker,2013-02-02 23:46:00,
2013-02-02 15:51:00,66.2,44.2,30.21,NNW,338,0.0,0.0,45,0.00,,,0.00,176,WeatherTracker,2013-02-02 23:51:00,
2013-02-02 15:56:00,66.3,45.5,30.21,NNW,338,0.0,0.0,47,0.00,,,0.00,292,WeatherTracker,2013-02-02 23:56:00,
2013-02-02 16:01:00,66.6,45.2,30.21,NNW,338,0.0,0.0,46,0.00,,,0.00,121,WeatherTracker,2013-02-03 00:01:00,
2013-02-02 16:06:00,66.5,44.5,30.21,NNW,338,0.0,0.0,45,0.00,,,0.00,118,WeatherTracker,2013-02-03 00:06:00,
2013-02-02 16:11:00,66.1,44.1,30.21,NNW,338,0.0,0.0,45,0.00,,,0.00,102,WeatherTracker,2013-02-03 00:11:00,
2013-02-02 16:16:00,65.6,45.4,30.21,NNW,338,0.0,0.0,48,0.00,,,0.00,118,WeatherTracker,2013-02-03 00:16:00,
2013-02-02 16:21:00,65.2,44.5,30.20,NNW,338,0.0,0.0,47,0.00,,,0.00,90,WeatherTracker,2013-02-03 00:21:00,
2013-02-02 16:26:00,64.9,44.2,30.20,NNW,338,0.0,0.0,47,0.00,,,0.00,69,WeatherTracker,2013-02-03 00:26:00,
2013-02-02 16:31:00,64.6,44.5,30.20,NNW,338,0.0,0.0,48,0.00,,,0.00,67,WeatherTracker,2013-02-03 00:31:00,
2013-02-02 16:36:00,64.2,44.6,30.20,NNW,338,0.0,0.0,49,0.00,,,0.00,65,WeatherTracker,2013-02-03 00:36:00,
2013-02-02 16:41:00,63.9,44.4,30.20,NNW,338,0.0,0.0,49,0.00,,,0.00,58,WeatherTracker,2013-02-03 00:41:00,
2013-02-02 16:46:00,63.5,44.5,30.20,NNW,338,0.0,0.0,50,0.00,,,0.00,53,WeatherTracker,2013-02-03 00:46:00,
2013-02-02 16:51:00,63.3,45.4,30.20,NNW,338,0.0,0.0,52,0.00,,,0.00,49,WeatherTracker,2013-02-03 00:51:00,
2013-02-02 16:56:00,63.0,44.1,30.20,NNW,338,0.0,0.0,50,0.00,,,0.00,44,WeatherTracker,2013-02-03 00:56:00,
2013-02-02 17:01:00,62.8,44.9,30.20,NNW,338,0.0,0.0,52,0.00,,,0.00,37,WeatherTracker,2013-02-03 01:01:00,
2013-02-02 17:06:00,62.5,45.1,30.20,NNW,338,0.0,0.0,53,0.00,,,0.00,30,WeatherTracker,2013-02-03 01:06:00,
2013-02-02 17:11:00,62.2,44.9,30.20,NNW,338,0.0,0.0,53,0.00,,,0.00,25,WeatherTracker,2013-02-03 01:11:00,
2013-02-02 17:16:00,61.8,45.5,30.20,NNW,338,0.0,0.0,55,0.00,,,0.00,19,WeatherTracker,2013-02-03 01:16:00,
2013-02-02 17:21:00,61.3,45.5,30.20,NNW,338,0.0,0.0,56,0.00,,,0.00,14,WeatherTracker,2013-02-03 01:21:00,
2013-02-02 17:26:00,60.7,45.4,30.20,NNW,338,0.0,0.0,57,0.00,,,0.00,7,WeatherTracker,2013-02-03 01:26:00,
2013-02-02 17:31:00,60.1,45.3,30.20,NNW,338,0.0,0.0,58,0.00,,,0.00,7,WeatherTracker,2013-02-03 01:31:00,
2013-02-02 17:36:00,59.4,45.1,30.20,NNW,338,0.0,0.0,59,0.00,,,0.00,7,WeatherTracker,2013-02-03 01:36:00,
2013-02-02 17:41:00,59.1,45.7,30.20,NNW,338,0.0,0.0,61,0.00,,,0.00,5,WeatherTracker,2013-02-03 01:41:00,
2013-02-02 17:46:00,58.4,45.4,30.20,NNW,338,0.0,0.0,62,0.00,,,0.00,0,WeatherTracker,2013-02-03 01:46:00,
2013-02-02 17:51:00,57.9,45.4,30.20,NNW,338,0.0,0.0,63,0.00,,,0.00,0,WeatherTracker,2013-02-03 01:51:00,
2013-02-02 17:57:00,57.4,45.3,30.20,NNW,338,0.0,0.0,64,0.00,,,0.00,0,WeatherTracker,2013-02-03 01:57:00,
2013-02-02 18:02:00,56.9,45.3,30.21,NNW,338,0.0,0.0,65,0.00,,,0.00,0,WeatherTracker,2013-02-03 02:02:00,
2013-02-02 18:07:00,56.5,45.7,30.21,NNW,338,0.0,0.0,67,0.00,,,0.00,0,WeatherTracker,2013-02-03 02:07:00,
2013-02-02 18:12:00,56.0,45.2,30.21,NNW,338,0.0,0.0,67,0.00,,,0.00,0,WeatherTracker,2013-02-03 02:12:00,
2013-02-02 18:17:00,55.6,45.2,30.21,NNW,338,0.0,0.0,68,0.00,,,0.00,0,WeatherTracker,2013-02-03 02:17:00,
2013-02-02 18:22:00,55.2,45.2,30.21,NNW,338,0.0,0.0,69,0.00,,,0.00,0,WeatherTracker,2013-02-03 02:22:00,
2013-02-02 18:27:00,54.7,45.1,30.21,NNW,338,0.0,0.0,70,0.00,,,0.00,0,WeatherTracker,2013-02-03 02:27:00,
2013-02-02 18:32:00,54.2,45.0,30.21,NNW,338,0.0,0.0,71,0.00,,,0.00,0,WeatherTracker,2013-02-03 02:32:00,
2013-02-02 18:37:00,53.7,44.5,30.21,NNW,338,0.0,0.0,71,0.00,,,0.00,0,WeatherTracker,2013-02-03 02:37:00,
2013-02-02 18:42:00,53.4,44.6,30.21,NNW,338,0.0,0.0,72,0.00,,,0.00,0,WeatherTracker,2013-02-03 02:42:00,
2013-02-02 18:47:00,53.2,44.4,30.21,NNW,338,0.0,0.0,72,0.00,,,0.00,0,WeatherTracker,2013-02-03 02:47:00,
2013-02-02 18:52:00,53.1,44.7,30.21,NNW,338,0.0,0.0,73,0.00,,,0.00,0,WeatherTracker,2013-02-03 02:52:00,
2013-02-02 18:57:00,52.8,44.7,30.21,NNW,338,0.0,0.0,74,0.00,,,0.00,0,WeatherTracker,2013-02-03 02:57:00,
2013-02-02 19:02:00,52.4,44.4,30.21,NNW,338,0.0,0.0,74,0.00,,,0.00,0,WeatherTracker,2013-02-03 03:02:00,
2013-02-02 19:07:00,52.1,44.4,30.21,NNW,338,0.0,0.0,75,0.00,,,0.00,0,WeatherTracker,2013-02-03 03:07:00,
2013-02-02 19:12:00,52.0,44.3,30.21,NNW,338,0.0,0.0,75,0.00,,,0.00,0,WeatherTracker,2013-02-03 03:12:00,
2013-02-02 19:17:00,51.9,44.6,30.21,NNW,338,0.0,0.0,76,0.00,,,0.00,0,WeatherTracker,2013-02-03 03:17:00,
2013-02-02 19:22:00,51.7,44.0,30.21,NNW,338,0.0,0.0,75,0.00,,,0.00,0,WeatherTracker,2013-02-03 03:22:00,
2013-02-02 19:27:00,51.5,44.2,30.21,NNW,338,0.0,0.0,76,0.00,,,0.00,0,WeatherTracker,2013-02-03 03:27:00,
2013-02-02 19:33:00,51.3,44.0,30.21,NNW,338,0.0,0.0,76,0.00,,,0.00,0,WeatherTracker,2013-02-03 03:33:00,
2013-02-02 19:38:00,51.0,44.0,30.21,NNW,338,0.0,0.0,77,0.00,,,0.00,0,WeatherTracker,2013-02-03 03:38:00,
2013-02-02 19:43:00,50.7,44.1,30.21,NNW,338,0.0,0.0,78,0.00,,,0.00,0,WeatherTracker,2013-02-03 03:43:00,
2013-02-02 19:48:00,50.5,43.9,30.21,NNW,338,0.0,0.0,78,0.00,,,0.00,0,WeatherTracker,2013-02-03 03:48:00,
2013-02-02 19:53:00,50.3,43.7,30.21,NNW,338,0.0,0.0,78,0.00,,,0.00,0,WeatherTracker,2013-02-03 03:53:00,
2013-02-02 19:58:00,50.1,43.8,30.21,NNW,338,0.0,0.0,79,0.00,,,0.00,0,WeatherTracker,2013-02-03 03:58:00,
2013-02-02 20:03:00,49.9,43.6,30.21,NNW,338,0.0,0.0,79,0.00,,,0.00,0,WeatherTracker,2013-02-03 04:03:00,
2013-02-02 20:08:00,49.7,43.5,30.21,NNW,338,0.0,0.0,79,0.00,,,0.00,0,WeatherTracker,2013-02-03 04:08:00,
2013-02-02 20:13:00,49.5,43.6,30.21,NNW,338,0.0,0.0,80,0.00,,,0.00,0,WeatherTracker,2013-02-03 04:13:00,
2013-02-02 20:18:00,49.3,43.4,30.21,NNW,338,0.0,0.0,80,0.00,,,0.00,0,WeatherTracker,2013-02-03 04:18:00,
2013-02-02 20:23:00,49.1,43.2,30.21,NNW,338,0.0,0.0,80,0.00,,,0.00,0,WeatherTracker,2013-02-03 04:23:00,
2013-02-02 20:28:00,48.9,43.3,30.21,NNW,338,0.0,0.0,81,0.00,,,0.00,0,WeatherTracker,2013-02-03 04:28:00,
2013-02-02 20:33:00,48.8,43.2,30.21,NNW,338,0.0,0.0,81,0.00,,,0.00,0,WeatherTracker,2013-02-03 04:33:00,
2013-02-02 20:38:00,48.7,43.1,30.21,NNW,338,0.0,0.0,81,0.00,,,0.00,0,WeatherTracker,2013-02-03 04:38:00,
2013-02-02 20:43:00,48.6,43.0,30.21,NNW,338,0.0,0.0,81,0.00,,,0.00,0,WeatherTracker,2013-02-03 04:43:00,
2013-02-02 20:48:00,48.4,43.2,30.21,NNW,338,0.0,0.0,82,0.00,,,0.00,0,WeatherTracker,2013-02-03 04:48:00,
2013-02-02 20:53:00,48.2,43.0,30.21,NNW,338,0.0,0.0,82,0.00,,,0.00,0,WeatherTracker,2013-02-03 04:53:00,
2013-02-02 20:58:00,48.0,42.8,30.21,NNW,338,0.0,0.0,82,0.00,,,0.00,0,WeatherTracker,2013-02-03 04:58:00,
2013-02-02 21:00:00,47.9,42.7,30.21,NNW,338,0.0,0.0,82,0.00,,,0.00,0,WeatherTracker,2013-02-03 05:00:00,
2013-02-02 21:02:00,47.8,42.6,30.21,NNW,338,0.0,0.0,82,0.00,,,0.00,0,WeatherTracker,2013-02-03 05:02:00,
2013-02-02 21:07:00,47.6,42.7,30.21,NNW,338,0.0,0.0,83,0.00,,,0.00,0,WeatherTracker,2013-02-03 05:07:00,
2013-02-02 21:12:00,47.4,42.5,30.21,NNW,338,0.0,0.0,83,0.00,,,0.00,0,WeatherTracker,2013-02-03 05:12:00,
2013-02-02 21:17:00,47.3,42.4,30.21,NNW,338,0.0,0.0,83,0.00,,,0.00,0,WeatherTracker,2013-02-03 05:17:00,
2013-02-02 21:22:00,47.2,42.3,30.21,NNW,338,0.0,0.0,83,0.00,,,0.00,0,WeatherTracker,2013-02-03 05:22:00,
2013-02-02 21:27:00,47.0,42.1,30.20,NNW,338,0.0,0.0,83,0.00,,,0.00,0,WeatherTracker,2013-02-03 05:27:00,
2013-02-02 21:32:00,46.9,42.3,30.20,NNW,338,0.0,0.0,84,0.00,,,0.00,0,WeatherTracker,2013-02-03 05:32:00,
2013-02-02 21:37:00,46.8,42.2,30.20,NNW,338,0.0,0.0,84,0.00,,,0.00,0,WeatherTracker,2013-02-03 05:37:00,
2013-02-02 21:42:00,46.6,42.0,30.20,NNW,338,0.0,0.0,84,0.00,,,0.00,0,WeatherTracker,2013-02-03 05:42:00,
2013-02-02 21:47:00,46.6,42.0,30.20,NNW,338,0.0,0.0,84,0.00,,,0.00,0,WeatherTracker,2013-02-03 05:47:00,
2013-02-02 21:52:00,46.4,41.8,30.20,NNW,338,0.0,0.0,84,0.00,,,0.00,0,WeatherTracker,2013-02-03 05:52:00,
2013-02-02 21:57:00,46.4,41.8,30.20,NNW,338,0.0,0.0,84,0.00,,,0.00,0,WeatherTracker,2013-02-03 05:57:00,
2013-02-02 22:02:00,46.2,41.6,30.20,NNW,338,0.0,0.0,84,0.00,,,0.00,0,WeatherTracker,2013-02-03 06:02:00,
2013-02-02 22:07:00,46.2,41.9,30.20,NNW,338,0.0,0.0,85,0.00,,,0.00,0,WeatherTracker,2013-02-03 06:07:00,
2013-02-02 22:12:00,46.1,41.8,30.20,NNW,338,0.0,0.0,85,0.00,,,0.00,0,WeatherTracker,2013-02-03 06:12:00,
2013-02-02 22:17:00,46.0,41.7,30.20,NNW,338,0.0,0.0,85,0.00,,,0.00,0,WeatherTracker,2013-02-03 06:17:00,
2013-02-02 22:22:00,45.9,41.6,30.20,NNW,338,0.0,0.0,85,0.00,,,0.00,0,WeatherTracker,2013-02-03 06:22:00,
2013-02-02 22:27:00,45.7,41.5,30.20,NNW,338,0.0,0.0,85,0.00,,,0.00,0,WeatherTracker,2013-02-03 06:27:00,
2013-02-02 22:32:00,45.7,41.8,30.20,NNW,338,0.0,0.0,86,0.00,,,0.00,0,WeatherTracker,2013-02-03 06:32:00,
2013-02-02 22:37:00,45.6,41.7,30.20,NNW,338,0.0,0.0,86,0.00,,,0.00,0,WeatherTracker,2013-02-03 06:37:00,
2013-02-02 22:42:00,45.5,41.6,30.20,NNW,338,0.0,0.0,86,0.00,,,0.00,0,WeatherTracker,2013-02-03 06:42:00,
2013-02-02 22:47:00,45.4,41.5,30.20,NNW,338,0.0,0.0,86,0.00,,,0.00,0,WeatherTracker,2013-02-03 06:47:00,
2013-02-02 22:52:00,45.3,41.4,30.20,NNW,338,0.0,0.0,86,0.00,,,0.00,0,WeatherTracker,2013-02-03 06:52:00,
2013-02-02 22:57:00,45.2,41.3,30.20,NNW,338,0.0,0.0,86,0.00,,,0.00,0,WeatherTracker,2013-02-03 06:57:00,
2013-02-02 23:03:00,45.1,41.2,30.20,NNW,338,0.0,0.0,86,0.00,,,0.00,0,WeatherTracker,2013-02-03 07:03:00,
2013-02-02 23:07:00,45.0,41.1,30.20,NNW,338,0.0,0.0,86,0.00,,,0.00,0,WeatherTracker,2013-02-03 07:07:00,
2013-02-02 23:13:00,44.8,40.9,30.21,NNW,338,0.0,0.0,86,0.00,,,0.00,0,WeatherTracker,2013-02-03 07:13:00,
2013-02-02 23:18:00,44.6,40.7,30.21,NNW,338,0.0,0.0,86,0.00,,,0.00,0,WeatherTracker,2013-02-03 07:18:00,
2013-02-02 23:23:00,44.4,40.5,30.21,NNW,338,0.0,0.0,86,0.00,,,0.00,0,WeatherTracker,2013-02-03 07:23:00,
2013-02-02 23:28:00,44.3,40.7,30.21,NNW,338,0.0,0.0,87,0.00,,,0.00,0,WeatherTracker,2013-02-03 07:28:00,
2013-02-02 23:33:00,44.2,40.6,30.21,NNW,338,0.0,0.0,87,0.00,,,0.00,0,WeatherTracker,2013-02-03 07:33:00,
2013-02-02 23:38:00,44.1,40.5,30.21,NNW,338,0.0,0.0,87,0.00,,,0.00,0,WeatherTracker,2013-02-03 07:38:00,
2013-02-02 23:43:00,44.1,40.5,30.21,NNW,338,0.0,0.0,87,0.00,,,0.00,0,WeatherTracker,2013-02-03 07:43:00,
2013-02-02 23:48:00,44.0,40.4,30.21,NNW,338,0.0,0.0,87,0.00,,,0.00,0,WeatherTracker,2013-02-03 07:48:00,
2013-02-02 23:53:00,43.9,40.3,30.21,NNW,338,0.0,0.0,87,0.00,,,0.00,0,WeatherTracker,2013-02-03 07:53:00,
2013-02-02 23:58:00,43.9,40.3,30.21,NNW,338,0.0,0.0,87,0.00,,,0.00,0,WeatherTracker,2013-02-03 07:58:00,